#timestamp,LO_Frequency,Hit,StdDev 
1552186815.1,286046970.1,N
1552186835.9,286046970.7,N
1552186855.7,286046970.3,N
1552186875.6,286046968.9,N
1552186895.4,286046969.2,Y
1552186915.2,286046986.7,P
1552186935.1,286046984.3,P
1552186936.0,286046984.3,P
1552186955.8,286046985.2,Y
1552186975.7,286046998.6,P
1552186995.5,286046999.3,N
1552187015.3,286046997.2,N
1552187035.2,286046997.2,N
1552187055.0,286046995.3,N
1552187055.9,286046995.3,N
1552187075.7,286046995.0,N
1552187095.6,286046995.5,N
1552187115.4,286046995.0,N
1552187135.3,286046997.4,N
1552187155.1,286046998.7,N
1552187156.0,286046998.7,N
1552187175.8,286047000.7,N
1552187195.7,286046996.5,N
1552187215.5,286046997.7,N
1552187235.4,286046996.8,N
1552187255.2,286046997.4,N
1552187275.0,286046996.7,N
1552187275.9,286046996.7,N
1552187295.8,286046997.0,N
1552187315.6,286046997.2,N
1552187335.4,286046999.6,N
1552187355.3,286047001.1,N
1552187375.1,286047002.5,N
1552187395.9,286047005.1,N
1552187415.7,286047008.7,N
1552187435.5,286047008.3,N
1552187455.4,286047009.8,N
1552187475.2,286047010.6,N
1552187495.0,286047011.8,N
1552187495.9,286047011.8,N
1552187515.8,286047010.9,N
1552187535.6,286047013.8,N
1552187555.5,286047016.6,N
1552187575.3,286047017.8,N
1552187595.1,286047021.5,Y
1552187615.9,286047018.5,P
1552187635.7,286047017.8,N
1552187655.6,286047017.6,N
1552187675.4,286047019.9,N
1552187695.2,286047021.1,Y
1552187715.1,286047006.8,P
1552187716.0,286047006.8,N
1552187735.8,286047006.7,N
1552187755.6,286047006.5,N
1552187775.5,286047007.3,N
1552187795.3,286047006.6,N
1552187815.2,286047009.1,Y
1552187835.9,286047002.5,P
1552187855.7,286047002.8,N
1552187875.6,286047002.1,N
1552187895.4,286047002.7,N
1552187915.3,286047004.4,N
1552187935.1,286047003.9,N
1552187936.0,286047003.9,N
1552187955.8,286047003.6,N
1552187975.7,286047003.0,N
1552187995.5,286047003.3,N
1552188015.3,286046999.7,N
1552188035.2,286047000.6,N
1552188055.0,286046996.8,N
1552188055.9,286046996.8,N
1552188075.8,286046994.2,N
1552188095.6,286046992.1,N
1552188115.4,286046990.4,N
1552188135.3,286046989.1,N
1552188155.1,286046987.6,N
1552188175.8,286046988.0,N
1552188195.7,286046984.2,N
1552188215.5,286046984.8,N
1552188235.4,286046983.5,N
1552188255.2,286046980.7,N
1552188275.0,286046980.5,N
1552188275.9,286046980.5,N
1552188295.8,286046982.8,N
1552188315.6,286046985.0,N
1552188335.5,286046983.9,N
1552188355.3,286046988.2,N
1552188375.1,286046989.1,N
1552188395.9,286046992.5,N
1552188415.7,286046997.8,N
1552188435.5,286046999.3,N
1552188455.4,286046999.8,N
1552188475.2,286047001.5,N
1552188495.1,286047003.7,N
1552188496.0,286047003.7,N
1552188515.8,286047004.8,N
1552188535.6,286047004.7,N
1552188555.5,286047007.6,N
1552188575.3,286047007.1,N
1552188595.1,286047006.7,N
1552188615.9,286047008.5,N
1552188635.7,286047007.7,N
1552188655.6,286047010.7,N
1552188675.4,286047008.2,N
1552188695.2,286047007.8,N
1552188715.1,286047008.0,N
1552188716.0,286047008.0,N
1552188735.8,286047008.9,N
1552188755.7,286047010.0,N
1552188775.5,286047010.4,N
1552188795.3,286047009.3,N
1552188815.2,286047009.4,N
1552188835.0,286047011.7,N
1552188835.9,286047011.7,N
1552188855.7,286047009.4,N
1552188875.6,286047010.3,N
1552188895.4,286047010.4,N
1552188915.3,286047012.4,N
1552188935.1,286047010.4,N
1552188955.8,286047008.3,N
1552188975.7,286047008.0,N
1552188995.5,286047007.5,N
1552189015.4,286047005.8,N
1552189035.2,286047002.1,N
1552189055.0,286047000.2,N
1552189055.9,286047000.2,N
1552189075.8,286047001.2,N
1552189095.6,286046996.5,N
1552189115.4,286046995.7,N
1552189135.3,286046994.0,N
1552189155.1,286046992.2,N
1552189175.9,286046992.4,N
1552189195.7,286046992.7,N
1552189215.5,286046991.1,N
1552189235.4,286046990.5,N
1552189255.2,286046988.9,N
1552189275.0,286046987.3,N
1552189276.0,286046987.3,N
1552189295.8,286046988.2,N
1552189315.6,286046986.2,N
1552189335.5,286046986.5,N
1552189355.3,286046984.3,N
1552189375.1,286046982.7,N
1552189395.9,286046982.6,N
1552189415.7,286046981.1,N
1552189435.6,286046979.1,N
1552189455.4,286046979.1,N
1552189475.2,286046977.9,N
1552189495.1,286046978.4,N
1552189496.0,286046978.4,N
1552189515.8,286046975.8,N
1552189535.6,286046978.8,N
1552189555.5,286046976.6,N
1552189575.3,286046974.5,Y
1552189595.2,286046991.6,P
1552189615.9,286046992.6,P
1552189635.7,286046994.8,N
1552189655.6,286046995.0,N
1552189675.4,286046999.6,N
1552189695.3,286047001.2,N
1552189715.1,286046996.8,N
1552189716.0,286046996.8,N
1552189735.8,286046995.4,N
1552189755.7,286046994.0,N
1552189775.5,286046991.8,N
1552189795.3,286046993.3,N
1552189815.2,286046995.6,N
1552189835.0,286046997.5,N
1552189835.9,286046997.5,N
1552189855.8,286046998.1,N
1552189875.6,286047000.6,N
1552189895.4,286047000.7,N
1552189915.3,286047000.1,N
1552189935.1,286047000.0,N
1552189955.9,286047000.7,N
1552189975.7,286047000.9,N
1552189995.5,286047001.1,N
1552190015.4,286046999.8,N
1552190035.2,286046999.9,N
1552190055.0,286047001.8,N
1552190055.9,286047001.8,N
1552190075.8,286047002.6,N
1552190095.6,286047004.0,N
1552190115.5,286047003.8,N
1552190135.3,286047001.5,N
1552190155.1,286047000.7,N
1552190175.9,286046998.3,N
1552190195.7,286046995.0,N
1552190215.5,286046993.6,N
1552190235.4,286046994.6,N
1552190255.2,286046995.3,N
1552190275.1,286046996.3,N
1552190276.0,286046996.3,N
1552190295.8,286046994.6,N
1552190315.6,286046991.7,N
1552190335.5,286046994.4,N
1552190355.3,286046994.1,N
1552190375.1,286046992.3,N
1552190395.9,286046991.7,N
